{"data":{"norad_id":37185,"intl_designator":"2010-053A","name":"XM-5","alt_names":[],"object_type":"PAYLOAD","status":"ACTIVE","operator":null,"country":"US","launch_date":"2010-10-14","launch_site_code":"TYMSC","launch_vehicle":null,"mission":null,"orbit_class":"UNKNOWN","rcs_meters":12.6191,"size_class":null,"mass_kg":null,"dimensions":null,"purposes":["comms"],"wikipedia_slug":null,"has_3d_model":false,"image_url":null,"decayed_at":null,"tle_current":{"epoch":"2026-09-19T16:25:24.470400Z","epoch_age_seconds":84899,"freshness":"FRESH","line1":"1 37185U 10053A   26262.68431100 -.00000028  00000+0  00000+0 0  9993","line2":"2 37185   0.0711 270.9145 0000512 213.5414   5.3096  1.00271959 58438","mean_motion":1.00271959,"eccentricity":5.12e-5,"inclination_deg":0.0711,"raan_deg":270.9145,"arg_perigee_deg":213.5414,"mean_anomaly_deg":5.3096,"bstar":0,"rev_number":5843,"period_min":1436.0944119981,"perigee_km":35784.387350966,"apogee_km":35788.705014524,"semimajor_km":42164.683182745,"source":"CELESTRAK","updated_at":"2026-09-20T09:00:35.518864Z"}}}